This is the latest recevied weather packets stored in our database for station/object VR2OT-10. If no packets are shown the sender has not sent any weather packets the latest 10 day(s).
| Time | Temp. | Humidity | Pressure | Rain* | Wind** | Luminosity | Snow |
|---|---|---|---|---|---|---|---|
| 1777562238 | 21.11° C | 71% | 1015.5 hPa | - | 0 m/s | - | - |
| 1777560438 | 20.56° C | 70% | 1015.6 hPa | - | 0 m/s | - | - |
| 1777556838 | 21.11° C | 69% | 1015.7 hPa | - | 1.34 m/s, 315° | - | - |
| 1777555938 | 21.67° C | 69% | 1015.3 hPa | - | 2.68 m/s, 135° | - | - |
| 1777553238 | 21.67° C | 63% | 1015 hPa | - | 1.79 m/s, 135° | - | - |
| 1777552338 | 21.67° C | 63% | 1014.7 hPa | - | 1.79 m/s, 0° | - | - |
| 1777550538 | 21.67° C | 59% | 1014.5 hPa | - | 1.79 m/s, 45° | - | - |
| 1777549637 | 22.22° C | 59% | 1014.3 hPa | - | 1.34 m/s, 45° | - | - |
| 1777548737 | 22.22° C | 59% | 1014.3 hPa | - | 1.34 m/s, 45° | - | - |
| 1777547838 | 22.22° C | 60% | 1014.1 hPa | - | 2.24 m/s, 45° | - | - |
| 1777546038 | 22.78° C | 63% | 1013.8 hPa | - | 2.68 m/s, 0° | - | - |
| 1777543338 | 23.33° C | 61% | 1013.6 hPa | - | 3.13 m/s, 135° | - | - |
| 1777542439 | 23.33° C | 60% | 1013.6 hPa | - | 3.13 m/s, 135° | - | - |
| 1777541539 | 23.89° C | 56% | 1013.3 hPa | - | 4.02 m/s, 135° | - | - |
| 1777540638 | 23.89° C | 58% | 1013.2 hPa | - | 4.02 m/s, 135° | - | - |
| 1777539739 | 23.89° C | 55% | 1013.3 hPa | - | 2.68 m/s, 90° | - | - |
| 1777538838 | 23.89° C | 53% | 1013.3 hPa | - | 3.13 m/s, 135° | - | - |
| 1777537937 | 23.89° C | 56% | 1013.3 hPa | - | 3.13 m/s, 135° | - | - |
| 1777537037 | 24.44° C | 57% | 1013.3 hPa | - | 3.13 m/s, 135° | - | - |
| 1777536139 | 24.44° C | 55% | 1013.5 hPa | - | 3.13 m/s, 135° | - | - |
| 1777535238 | 24.44° C | 54% | 1013.6 hPa | - | 2.24 m/s, 135° | - | - |
| 1777534339 | 23.89° C | 54% | 1013.6 hPa | - | 1.79 m/s, 180° | - | - |
| 1777533438 | 23.89° C | 53% | 1013.8 hPa | - | 1.34 m/s, 225° | - | - |
| 1777532537 | 24.44° C | 54% | 1014 hPa | - | 1.79 m/s, 270° | - | - |
| 1777531637 | 24.44° C | 54% | 1014.2 hPa | - | 1.79 m/s, 270° | - | - |
* Rain since midnight (hover to see other rain measurements)
** Current wind speed in m/s (hover to see current wind gust speed)